Location: *
(1.3500°S, 147.5000°W)
Time: 16:51:32
(UTC+00:00)

Meteor 2-16 Rocket - Pass Details

Date: 07 April 2020
Orbit: 941 x 957 km, 82.6° (Epoch: 26 May)

Event Time Altitude Azimuth Distance (km) Brightness Sun altitude
Rises 04:15:17 0° 360° (N) 3,616 7.6 -5.9°
Reaches altitude 10° 04:17:46 10° 2° (N) 2,672 6.9 -6.5°
Maximum altitude 04:23:52 75° 87° (E) 985 4.4 -8.0°
Drops below altitude 10° 04:29:59 10° 171° (S) 2,674 6.6 -9.6°
Sets 04:32:28 0° 173° (S) 3,619 7.3 -10.2°
